Time,TemperatureF,DewpointF,PressureIn,WindDirection,WindDirectionDegrees,WindSpeedMPH,WindSpeedGustMPH,Humidity,HourlyPrecipIn,Conditions,Clouds,dailyrainin,SoftwareType,DateUTC
2013-06-15 00:02:00,61.2,52.2,29.85,SSW,202,0.0,0.0,72,0.00,,,0.00,meteohub,2013-06-15 04:02:00,
2013-06-15 00:07:00,61.3,51.8,29.85,SSW,202,0.0,0.0,71,0.00,,,0.00,meteohub,2013-06-15 04:07:00,
2013-06-15 00:12:00,61.5,52.0,29.85,SSW,202,0.0,0.0,71,0.00,,,0.00,meteohub,2013-06-15 04:12:00,
2013-06-15 00:17:00,61.7,52.2,29.85,SSW,202,0.0,0.0,71,0.00,,,0.00,meteohub,2013-06-15 04:17:00,
2013-06-15 00:22:00,61.9,52.0,29.85,North,0,0.0,0.0,70,0.00,,,0.00,meteohub,2013-06-15 04:22:00,
2013-06-15 00:27:00,62.1,51.8,29.85,NNW,338,0.0,1.0,69,0.00,,,0.00,meteohub,2013-06-15 04:27:00,
2013-06-15 00:32:00,62.2,52.0,29.85,NNW,338,0.0,1.0,69,0.00,,,0.00,meteohub,2013-06-15 04:32:00,
2013-06-15 00:37:00,62.4,51.8,29.88,NNE,22,0.0,1.0,68,0.00,,,0.00,meteohub,2013-06-15 04:37:00,
2013-06-15 00:42:00,62.6,52.0,29.88,SE,135,0.0,0.0,68,0.00,,,0.00,meteohub,2013-06-15 04:42:00,
2013-06-15 00:47:00,62.6,52.0,29.88,ENE,68,0.0,0.0,68,0.00,,,0.00,meteohub,2013-06-15 04:47:00,
2013-06-15 00:52:00,62.6,52.0,29.88,SE,135,0.0,0.0,68,0.00,,,0.00,meteohub,2013-06-15 04:52:00,
2013-06-15 00:57:00,62.4,51.8,29.88,SE,135,0.0,0.0,68,0.00,,,0.00,meteohub,2013-06-15 04:57:00,
2013-06-15 01:02:00,62.2,51.6,29.88,SE,135,0.0,0.0,68,0.00,,,0.00,meteohub,2013-06-15 05:02:00,
2013-06-15 01:07:00,62.2,51.6,29.88,SE,135,0.0,0.0,68,0.00,,,0.00,meteohub,2013-06-15 05:07:00,
2013-06-15 01:12:00,62.2,51.6,29.88,South,180,0.0,0.0,68,0.00,,,0.00,meteohub,2013-06-15 05:12:00,
2013-06-15 01:17:00,62.2,51.6,29.88,SSE,158,0.0,0.0,68,0.00,,,0.00,meteohub,2013-06-15 05:17:00,
2013-06-15 01:22:00,62.1,51.4,29.88,SSE,158,0.0,0.0,68,0.00,,,0.00,meteohub,2013-06-15 05:22:00,
2013-06-15 01:27:00,61.7,51.1,29.88,SSE,158,0.0,0.0,68,0.00,,,0.00,meteohub,2013-06-15 05:27:00,
2013-06-15 01:32:00,61.5,50.9,29.88,SSE,158,0.0,0.0,68,0.00,,,0.00,meteohub,2013-06-15 05:32:00,
2013-06-15 01:37:00,61.2,50.9,29.88,SSE,158,0.0,0.0,69,0.00,,,0.00,meteohub,2013-06-15 05:37:00,
2013-06-15 01:42:00,61.0,50.7,29.88,SSE,158,0.0,0.0,69,0.00,,,0.00,meteohub,2013-06-15 05:42:00,
2013-06-15 01:47:00,60.8,50.5,29.88,SSE,158,0.0,0.0,69,0.00,,,0.00,meteohub,2013-06-15 05:47:00,
2013-06-15 01:52:00,60.6,50.7,29.88,SE,135,0.0,0.0,70,0.00,,,0.00,meteohub,2013-06-15 05:52:00,
2013-06-15 01:57:00,60.4,51.1,29.88,SE,135,0.0,0.0,71,0.00,,,0.00,meteohub,2013-06-15 05:57:00,
2013-06-15 02:02:00,60.3,50.9,29.88,SE,135,0.0,0.0,71,0.00,,,0.00,meteohub,2013-06-15 06:02:00,
2013-06-15 02:07:00,60.3,50.9,29.88,SE,135,0.0,0.0,71,0.00,,,0.00,meteohub,2013-06-15 06:07:00,
2013-06-15 02:12:00,60.3,50.9,29.88,SE,135,0.0,0.0,71,0.00,,,0.00,meteohub,2013-06-15 06:12:00,
2013-06-15 02:17:00,60.1,50.7,29.88,ESE,112,0.0,0.0,71,0.00,,,0.00,meteohub,2013-06-15 06:17:00,
2013-06-15 02:22:00,60.1,50.7,29.85,ENE,68,0.0,1.0,71,0.00,,,0.00,meteohub,2013-06-15 06:22:00,
2013-06-15 02:27:00,60.1,50.7,29.85,East,90,0.0,1.0,71,0.00,,,0.00,meteohub,2013-06-15 06:27:00,
2013-06-15 02:32:00,60.1,50.7,29.85,NNE,22,0.0,1.0,71,0.00,,,0.00,meteohub,2013-06-15 06:32:00,
2013-06-15 02:37:00,60.1,50.7,29.88,NE,45,0.0,0.0,71,0.00,,,0.00,meteohub,2013-06-15 06:37:00,
2013-06-15 02:42:00,60.1,50.4,29.88,North,0,0.0,0.0,70,0.00,,,0.00,meteohub,2013-06-15 06:42:00,
2013-06-15 02:47:00,60.1,50.4,29.88,North,0,0.0,0.0,70,0.00,,,0.00,meteohub,2013-06-15 06:47:00,
2013-06-15 02:52:00,60.3,50.4,29.88,ENE,68,0.0,0.0,70,0.00,,,0.00,meteohub,2013-06-15 06:52:00,
2013-06-15 02:57:00,60.3,50.4,29.88,NNE,22,0.0,0.0,70,0.00,,,0.00,meteohub,2013-06-15 06:57:00,
2013-06-15 03:02:00,60.3,50.4,29.88,East,90,0.0,0.0,70,0.00,,,0.00,meteohub,2013-06-15 07:02:00,
2013-06-15 03:07:00,60.3,50.4,29.88,East,90,0.0,0.0,70,0.00,,,0.00,meteohub,2013-06-15 07:07:00,
2013-06-15 03:12:00,60.1,50.4,29.88,ESE,112,0.0,0.0,70,0.00,,,0.00,meteohub,2013-06-15 07:12:00,
2013-06-15 03:17:00,59.9,50.2,29.88,SE,135,0.0,0.0,70,0.00,,,0.00,meteohub,2013-06-15 07:17:00,
2013-06-15 03:22:00,59.7,50.0,29.91,SSE,158,0.0,0.0,70,0.00,,,0.00,meteohub,2013-06-15 07:22:00,
2013-06-15 03:27:00,59.5,49.8,29.91,ESE,112,0.0,0.0,70,0.00,,,0.00,meteohub,2013-06-15 07:27:00,
2013-06-15 03:32:00,59.4,50.0,29.91,ESE,112,0.0,0.0,71,0.00,,,0.00,meteohub,2013-06-15 07:32:00,
2013-06-15 03:37:00,59.0,49.6,29.91,East,90,0.0,0.0,71,0.00,,,0.00,meteohub,2013-06-15 07:37:00,
2013-06-15 03:42:00,59.0,49.3,29.91,SSE,158,0.0,0.0,70,0.00,,,0.00,meteohub,2013-06-15 07:42:00,
2013-06-15 03:47:00,58.8,49.5,29.91,SSE,158,0.0,0.0,71,0.00,,,0.00,meteohub,2013-06-15 07:47:00,
2013-06-15 03:52:00,58.8,49.5,29.91,SSE,158,0.0,0.0,71,0.00,,,0.00,meteohub,2013-06-15 07:52:00,
2013-06-15 03:57:00,58.6,49.3,29.91,South,180,0.0,0.0,71,0.00,,,0.00,meteohub,2013-06-15 07:57:00,
2013-06-15 04:02:00,58.5,49.1,29.91,South,180,0.0,0.0,71,0.00,,,0.00,meteohub,2013-06-15 08:02:00,
2013-06-15 04:07:00,58.3,48.9,29.91,SE,135,0.0,0.0,71,0.00,,,0.00,meteohub,2013-06-15 08:07:00,
2013-06-15 04:12:00,58.1,48.7,29.91,East,90,0.0,0.0,71,0.00,,,0.00,meteohub,2013-06-15 08:12:00,
2013-06-15 04:17:00,58.1,48.7,29.91,East,90,0.0,0.0,71,0.00,,,0.00,meteohub,2013-06-15 08:17:00,
2013-06-15 04:22:00,58.1,48.7,29.94,East,90,0.0,0.0,71,0.00,,,0.00,meteohub,2013-06-15 08:22:00,
2013-06-15 04:27:00,57.9,48.6,29.94,East,90,0.0,0.0,71,0.00,,,0.00,meteohub,2013-06-15 08:27:00,
2013-06-15 04:32:00,57.9,48.6,29.94,SSE,158,0.0,0.0,71,0.00,,,0.00,meteohub,2013-06-15 08:32:00,
2013-06-15 04:37:00,57.7,48.4,29.94,SSE,158,0.0,0.0,71,0.00,,,0.00,meteohub,2013-06-15 08:37:00,
2013-06-15 04:42:00,57.6,48.2,29.94,South,180,0.0,0.0,71,0.00,,,0.00,meteohub,2013-06-15 08:42:00,
2013-06-15 04:47:00,57.4,48.0,29.94,South,180,0.0,0.0,71,0.00,,,0.00,meteohub,2013-06-15 08:47:00,
2013-06-15 04:52:00,57.2,47.8,29.94,South,180,0.0,0.0,71,0.00,,,0.00,meteohub,2013-06-15 08:52:00,
2013-06-15 04:57:00,57.2,47.8,29.94,South,180,0.0,0.0,71,0.00,,,0.00,meteohub,2013-06-15 08:57:00,
2013-06-15 05:02:00,57.2,47.8,29.94,South,180,0.0,0.0,71,0.00,,,0.00,meteohub,2013-06-15 09:02:00,
2013-06-15 05:07:00,57.0,47.7,29.94,South,180,0.0,0.0,71,0.00,,,0.00,meteohub,2013-06-15 09:07:00,
2013-06-15 05:12:00,56.8,47.8,29.94,South,180,0.0,0.0,72,0.00,,,0.00,meteohub,2013-06-15 09:12:00,
2013-06-15 05:17:00,56.8,47.8,29.94,South,180,0.0,0.0,72,0.00,,,0.00,meteohub,2013-06-15 09:17:00,
2013-06-15 05:22:00,57.0,48.0,29.94,South,180,0.0,0.0,72,0.00,,,0.00,meteohub,2013-06-15 09:22:00,
2013-06-15 05:27:00,57.2,47.8,29.94,South,180,0.0,0.0,71,0.00,,,0.00,meteohub,2013-06-15 09:27:00,
2013-06-15 05:32:00,57.2,47.5,29.94,South,180,0.0,0.0,70,0.00,,,0.00,meteohub,2013-06-15 09:32:00,
2013-06-15 05:37:00,57.4,47.3,29.94,South,180,0.0,0.0,69,0.00,,,0.00,meteohub,2013-06-15 09:37:00,
2013-06-15 05:42:00,57.4,46.9,29.94,NNW,338,0.0,0.0,68,0.00,,,0.00,meteohub,2013-06-15 09:42:00,
2013-06-15 05:47:00,57.4,46.6,29.94,NNW,338,0.0,0.0,67,0.00,,,0.00,meteohub,2013-06-15 09:47:00,
2013-06-15 05:52:00,57.4,46.2,29.94,NNW,338,0.0,0.0,66,0.00,,,0.00,meteohub,2013-06-15 09:52:00,
2013-06-15 05:57:00,57.6,46.2,29.94,NNW,338,0.0,0.0,66,0.00,,,0.00,meteohub,2013-06-15 09:57:00,
2013-06-15 06:02:00,57.6,46.2,29.94,NW,315,0.0,0.0,66,0.00,,,0.00,meteohub,2013-06-15 10:02:00,
2013-06-15 06:07:00,57.6,45.9,29.94,ENE,68,0.0,0.0,65,0.00,,,0.00,meteohub,2013-06-15 10:07:00,
2013-06-15 06:12:00,57.9,46.2,29.94,East,90,0.0,0.0,65,0.00,,,0.00,meteohub,2013-06-15 10:12:00,
2013-06-15 06:17:00,57.9,46.6,29.94,North,0,0.0,0.0,66,0.00,,,0.00,meteohub,2013-06-15 10:17:00,
2013-06-15 06:22:00,57.6,46.8,29.97,East,90,0.0,0.0,67,0.00,,,0.00,meteohub,2013-06-15 10:22:00,
2013-06-15 06:27:00,57.9,46.6,29.97,NNE,22,0.0,0.0,66,0.00,,,0.00,meteohub,2013-06-15 10:27:00,
2013-06-15 06:32:00,57.9,46.6,29.97,ENE,68,0.0,0.0,66,0.00,,,0.00,meteohub,2013-06-15 10:32:00,
2013-06-15 06:37:00,58.1,46.8,29.97,North,0,0.0,0.0,66,0.00,,,0.00,meteohub,2013-06-15 10:37:00,
2013-06-15 06:42:00,58.1,46.8,29.97,North,0,0.0,0.0,66,0.00,,,0.00,meteohub,2013-06-15 10:42:00,
2013-06-15 06:47:00,58.3,46.9,29.97,NNE,22,0.0,0.0,66,0.00,,,0.00,meteohub,2013-06-15 10:47:00,
2013-06-15 06:52:00,58.5,47.1,29.97,East,90,0.0,0.0,66,0.00,,,0.00,meteohub,2013-06-15 10:52:00,
2013-06-15 06:57:00,58.8,47.1,29.97,North,0,0.0,0.0,65,0.00,,,0.00,meteohub,2013-06-15 10:57:00,
2013-06-15 07:02:00,58.8,46.8,29.97,North,0,0.0,0.0,64,0.00,,,0.00,meteohub,2013-06-15 11:02:00,
2013-06-15 07:07:00,59.2,46.2,29.97,North,0,0.0,0.0,62,0.00,,,0.00,meteohub,2013-06-15 11:07:00,
2013-06-15 07:12:00,59.4,46.4,29.97,NNW,338,0.0,0.0,62,0.00,,,0.00,meteohub,2013-06-15 11:12:00,
2013-06-15 07:17:00,59.7,46.8,29.97,NNW,338,0.0,0.0,62,0.00,,,0.00,meteohub,2013-06-15 11:17:00,
2013-06-15 07:22:00,59.7,46.8,29.97,North,0,0.0,0.0,62,0.00,,,0.00,meteohub,2013-06-15 11:22:00,
2013-06-15 07:27:00,59.9,46.9,29.97,NNW,338,0.0,0.0,62,0.00,,,0.00,meteohub,2013-06-15 11:27:00,
2013-06-15 07:32:00,60.1,47.1,29.97,NNW,338,0.0,0.0,62,0.00,,,0.00,meteohub,2013-06-15 11:32:00,
2013-06-15 07:37:00,60.4,47.3,29.97,North,0,0.0,0.0,62,0.00,,,0.00,meteohub,2013-06-15 11:37:00,
2013-06-15 07:42:00,60.4,46.6,29.97,NNW,338,2.0,0.0,60,0.00,,,0.00,meteohub,2013-06-15 11:42:00,
2013-06-15 07:47:00,61.0,46.6,29.97,NNW,338,0.0,2.0,59,0.00,,,0.00,meteohub,2013-06-15 11:47:00,
2013-06-15 07:52:00,61.3,46.0,30.00,NNW,338,2.0,2.0,57,0.00,,,0.00,meteohub,2013-06-15 11:52:00,
2013-06-15 07:57:00,61.5,46.6,30.00,NNW,338,0.0,3.0,58,0.00,,,0.00,meteohub,2013-06-15 11:57:00,
2013-06-15 08:02:00,61.9,46.0,30.00,NNW,338,2.0,3.0,56,0.00,,,0.00,meteohub,2013-06-15 12:02:00,
2013-06-15 08:07:00,62.1,45.3,30.00,North,0,2.0,3.0,54,0.00,,,0.00,meteohub,2013-06-15 12:07:00,
2013-06-15 08:12:00,62.8,45.0,30.00,NW,315,2.0,3.0,52,0.00,,,0.00,meteohub,2013-06-15 12:12:00,
2013-06-15 08:17:00,63.0,44.1,30.00,NNW,338,0.0,3.0,50,0.00,,,0.00,meteohub,2013-06-15 12:17:00,
2013-06-15 08:22:00,63.3,44.4,30.00,NNW,338,3.0,3.0,50,0.00,,,0.00,meteohub,2013-06-15 12:22:00,
2013-06-15 08:27:00,63.5,44.1,30.00,NNW,338,2.0,4.0,49,0.00,,,0.00,meteohub,2013-06-15 12:27:00,
2013-06-15 08:32:00,63.9,44.4,30.00,NNW,338,2.0,4.0,49,0.00,,,0.00,meteohub,2013-06-15 12:32:00,
2013-06-15 08:37:00,64.0,44.6,30.00,NNW,338,2.0,4.0,49,0.00,,,0.00,meteohub,2013-06-15 12:37:00,
2013-06-15 08:42:00,64.2,44.1,30.00,NNW,338,0.0,4.0,48,0.00,,,0.00,meteohub,2013-06-15 12:42:00,
2013-06-15 08:47:00,64.6,43.9,30.00,North,0,2.0,4.0,47,0.00,,,0.00,meteohub,2013-06-15 12:47:00,
2013-06-15 08:52:00,64.9,45.3,29.97,NNW,338,3.0,3.0,49,0.00,,,0.00,meteohub,2013-06-15 12:52:00,
2013-06-15 08:57:00,65.3,44.1,29.97,NNW,338,2.0,4.0,46,0.00,,,0.00,meteohub,2013-06-15 12:57:00,
2013-06-15 09:02:00,65.5,43.5,29.97,NNW,338,4.0,4.0,45,0.00,,,0.00,meteohub,2013-06-15 13:02:00,
2013-06-15 09:07:00,65.7,43.2,30.00,NNW,338,2.0,4.0,44,0.00,,,0.00,meteohub,2013-06-15 13:07:00,
2013-06-15 09:12:00,66.0,44.1,30.00,NNW,338,2.0,4.0,45,0.00,,,0.00,meteohub,2013-06-15 13:12:00,
2013-06-15 09:17:00,66.2,43.7,30.00,North,0,3.0,4.0,44,0.00,,,0.00,meteohub,2013-06-15 13:17:00,
2013-06-15 09:22:00,66.4,43.9,30.00,NW,315,1.0,4.0,44,0.00,,,0.00,meteohub,2013-06-15 13:22:00,
2013-06-15 09:27:00,66.6,44.1,30.00,NNW,338,2.0,3.0,44,0.00,,,0.00,meteohub,2013-06-15 13:27:00,
2013-06-15 09:32:00,66.6,43.3,30.00,NW,315,2.0,3.0,43,0.00,,,0.00,meteohub,2013-06-15 13:32:00,
2013-06-15 09:37:00,66.9,43.2,30.00,NNW,338,1.0,3.0,42,0.00,,,0.00,meteohub,2013-06-15 13:37:00,
2013-06-15 09:42:00,67.5,44.2,30.00,NNW,338,1.0,3.0,43,0.00,,,0.00,meteohub,2013-06-15 13:42:00,
2013-06-15 09:47:00,67.8,42.6,30.00,NNW,338,0.0,4.0,40,0.00,,,0.00,meteohub,2013-06-15 13:47:00,
2013-06-15 09:52:00,68.0,44.1,30.00,NW,315,0.0,4.0,42,0.00,,,0.00,meteohub,2013-06-15 13:52:00,
2013-06-15 09:57:00,68.0,42.1,30.00,WNW,292,0.0,4.0,39,0.00,,,0.00,meteohub,2013-06-15 13:57:00,
2013-06-15 10:02:00,68.0,40.8,30.00,NNW,338,4.0,5.0,37,0.00,,,0.00,meteohub,2013-06-15 14:02:00,
2013-06-15 10:07:00,68.0,40.8,30.00,NW,315,3.0,5.0,37,0.00,,,0.00,meteohub,2013-06-15 14:07:00,
2013-06-15 10:12:00,68.0,41.5,30.00,NNW,338,2.0,4.0,38,0.00,,,0.00,meteohub,2013-06-15 14:12:00,
2013-06-15 10:17:00,68.2,41.0,30.00,NNW,338,2.0,4.0,37,0.00,,,0.00,meteohub,2013-06-15 14:17:00,
2013-06-15 10:22:00,68.5,41.2,29.97,NW,315,3.0,4.0,37,0.00,,,0.00,meteohub,2013-06-15 14:22:00,
2013-06-15 10:27:00,68.5,41.2,29.97,NNW,338,2.0,4.0,37,0.00,,,0.00,meteohub,2013-06-15 14:27:00,
2013-06-15 10:32:00,68.7,41.4,29.97,NNW,338,2.0,4.0,37,0.00,,,0.00,meteohub,2013-06-15 14:32:00,
2013-06-15 10:37:00,68.9,40.8,30.00,NW,315,4.0,4.0,36,0.00,,,0.00,meteohub,2013-06-15 14:37:00,
2013-06-15 10:42:00,69.1,41.0,30.00,North,0,3.0,5.0,36,0.00,,,0.00,meteohub,2013-06-15 14:42:00,
2013-06-15 10:47:00,69.3,41.2,30.00,NNW,338,2.0,5.0,36,0.00,,,0.00,meteohub,2013-06-15 14:47:00,
2013-06-15 10:52:00,69.3,41.2,30.00,NE,45,2.0,5.0,36,0.00,,,0.00,meteohub,2013-06-15 14:52:00,
2013-06-15 10:57:00,69.3,41.2,30.00,NNW,338,3.0,4.0,36,0.00,,,0.00,meteohub,2013-06-15 14:57:00,
2013-06-15 11:02:00,69.3,41.2,30.00,NW,315,1.0,4.0,36,0.00,,,0.00,meteohub,2013-06-15 15:02:00,
2013-06-15 11:07:00,69.4,42.8,30.00,NNW,338,2.0,3.0,38,0.00,,,0.00,meteohub,2013-06-15 15:07:00,
2013-06-15 11:12:00,69.6,42.3,30.00,WNW,292,1.0,3.0,37,0.00,,,0.00,meteohub,2013-06-15 15:12:00,
2013-06-15 11:17:00,69.8,43.2,30.00,NNW,338,3.0,3.0,38,0.00,,,0.00,meteohub,2013-06-15 15:17:00,
2013-06-15 11:22:00,69.8,42.4,30.00,NNW,338,0.0,6.0,37,0.00,,,0.00,meteohub,2013-06-15 15:22:00,
2013-06-15 11:27:00,69.8,41.7,30.00,NNW,338,3.0,6.0,36,0.00,,,0.00,meteohub,2013-06-15 15:27:00,
2013-06-15 11:32:00,69.8,41.7,30.00,WNW,292,2.0,4.0,36,0.00,,,0.00,meteohub,2013-06-15 15:32:00,
2013-06-15 11:37:00,69.8,41.7,30.00,WNW,292,3.0,4.0,36,0.00,,,0.00,meteohub,2013-06-15 15:37:00,
2013-06-15 11:42:00,70.0,41.2,30.00,NW,315,3.0,4.0,35,0.00,,,0.00,meteohub,2013-06-15 15:42:00,
2013-06-15 11:47:00,70.0,41.9,30.00,NW,315,1.0,5.0,36,0.00,,,0.00,meteohub,2013-06-15 15:47:00,
2013-06-15 11:52:00,70.2,41.9,30.00,WNW,292,4.0,5.0,36,0.00,,,0.00,meteohub,2013-06-15 15:52:00,
2013-06-15 11:57:00,70.2,41.2,30.00,NNW,338,3.0,4.0,35,0.00,,,0.00,meteohub,2013-06-15 15:57:00,
2013-06-15 12:02:00,70.2,41.2,30.00,NNW,338,3.0,4.0,35,0.00,,,0.00,meteohub,2013-06-15 16:02:00,
2013-06-15 12:07:00,70.3,40.6,29.97,NW,315,2.0,4.0,34,0.00,,,0.00,meteohub,2013-06-15 16:07:00,
2013-06-15 12:12:00,70.5,41.5,29.97,NNW,338,3.0,6.0,35,0.00,,,0.00,meteohub,2013-06-15 16:12:00,
2013-06-15 12:17:00,70.7,41.0,29.97,NW,315,2.0,6.0,34,0.00,,,0.00,meteohub,2013-06-15 16:17:00,
2013-06-15 12:22:00,70.9,40.5,30.00,NNW,338,4.0,6.0,33,0.00,,,0.00,meteohub,2013-06-15 16:22:00,
2013-06-15 12:27:00,70.9,40.5,30.00,NNW,338,4.0,5.0,33,0.00,,,0.00,meteohub,2013-06-15 16:27:00,
2013-06-15 12:32:00,71.1,41.4,30.00,NNW,338,4.0,5.0,34,0.00,,,0.00,meteohub,2013-06-15 16:32:00,
2013-06-15 12:37:00,71.2,41.5,30.00,SW,225,4.0,5.0,34,0.00,,,0.00,meteohub,2013-06-15 16:37:00,
2013-06-15 12:42:00,71.2,42.3,30.00,NNW,338,0.0,4.0,35,0.00,,,0.00,meteohub,2013-06-15 16:42:00,
2013-06-15 12:47:00,71.4,42.4,30.00,West,270,2.0,4.0,35,0.00,,,0.00,meteohub,2013-06-15 16:47:00,
2013-06-15 12:52:00,71.6,41.0,30.00,WNW,292,3.0,4.0,33,0.00,,,0.00,meteohub,2013-06-15 16:52:00,
2013-06-15 12:57:00,71.8,41.2,30.00,NNW,338,3.0,5.0,33,0.00,,,0.00,meteohub,2013-06-15 16:57:00,
2013-06-15 13:02:00,71.8,40.3,30.00,NNW,338,4.0,5.0,32,0.00,,,0.00,meteohub,2013-06-15 17:02:00,
2013-06-15 13:07:00,71.8,41.2,30.00,NW,315,2.0,5.0,33,0.00,,,0.00,meteohub,2013-06-15 17:07:00,
2013-06-15 13:12:00,71.8,41.2,30.00,WSW,248,4.0,5.0,33,0.00,,,0.00,meteohub,2013-06-15 17:12:00,
2013-06-15 13:17:00,71.8,41.2,30.00,NW,315,2.0,5.0,33,0.00,,,0.00,meteohub,2013-06-15 17:17:00,
2013-06-15 13:22:00,72.0,42.1,30.00,WNW,292,2.0,4.0,34,0.00,,,0.00,meteohub,2013-06-15 17:22:00,
2013-06-15 13:27:00,72.1,42.3,30.00,NW,315,2.0,4.0,34,0.00,,,0.00,meteohub,2013-06-15 17:27:00,
2013-06-15 13:32:00,72.1,42.3,30.00,NNW,338,1.0,4.0,34,0.00,,,0.00,meteohub,2013-06-15 17:32:00,
2013-06-15 13:37:00,72.3,42.4,29.97,ESE,112,4.0,4.0,34,0.00,,,0.00,meteohub,2013-06-15 17:37:00,
2013-06-15 13:42:00,72.1,41.5,29.97,SW,225,4.0,4.0,33,0.00,,,0.00,meteohub,2013-06-15 17:42:00,
2013-06-15 13:47:00,72.3,41.7,29.97,NW,315,3.0,4.0,33,0.00,,,0.00,meteohub,2013-06-15 17:47:00,
2013-06-15 13:52:00,72.7,41.2,29.97,NNW,338,4.0,4.0,32,0.00,,,0.00,meteohub,2013-06-15 17:52:00,
2013-06-15 13:57:00,72.7,41.2,29.97,NNW,338,3.0,6.0,32,0.00,,,0.00,meteohub,2013-06-15 17:57:00,
2013-06-15 14:02:00,72.9,42.1,29.97,WNW,292,2.0,6.0,33,0.00,,,0.00,meteohub,2013-06-15 18:02:00,
2013-06-15 14:07:00,73.0,41.5,30.00,NNW,338,4.0,5.0,32,0.00,,,0.00,meteohub,2013-06-15 18:07:00,
2013-06-15 14:12:00,73.2,41.5,30.00,WNW,292,1.0,5.0,32,0.00,,,0.00,meteohub,2013-06-15 18:12:00,
2013-06-15 14:17:00,73.4,42.6,30.00,NNW,338,4.0,6.0,33,0.00,,,0.00,meteohub,2013-06-15 18:17:00,
2013-06-15 14:22:00,73.6,41.9,29.97,NNW,338,2.0,6.0,32,0.00,,,0.00,meteohub,2013-06-15 18:22:00,
2013-06-15 14:27:00,73.6,41.9,29.97,NNW,338,2.0,5.0,32,0.00,,,0.00,meteohub,2013-06-15 18:27:00,
2013-06-15 14:32:00,73.4,41.7,29.97,WNW,292,0.0,5.0,32,0.00,,,0.00,meteohub,2013-06-15 18:32:00,
2013-06-15 14:37:00,73.6,42.8,29.97,NNW,338,2.0,4.0,33,0.00,,,0.00,meteohub,2013-06-15 18:37:00,
2013-06-15 14:42:00,73.8,42.1,29.97,NW,315,1.0,4.0,32,0.00,,,0.00,meteohub,2013-06-15 18:42:00,
2013-06-15 14:47:00,73.6,41.9,29.97,NNW,338,2.0,4.0,32,0.00,,,0.00,meteohub,2013-06-15 18:47:00,
2013-06-15 14:52:00,73.6,41.9,29.97,WNW,292,1.0,4.0,32,0.00,,,0.00,meteohub,2013-06-15 18:52:00,
2013-06-15 14:57:00,73.6,41.9,29.97,NNW,338,1.0,6.0,32,0.00,,,0.00,meteohub,2013-06-15 18:57:00,
2013-06-15 15:02:00,73.6,41.9,29.97,NW,315,3.0,6.0,32,0.00,,,0.00,meteohub,2013-06-15 19:02:00,
2013-06-15 15:07:00,73.9,42.3,29.97,WSW,248,0.0,6.0,32,0.00,,,0.00,meteohub,2013-06-15 19:07:00,
2013-06-15 15:12:00,73.8,43.0,29.97,WNW,292,4.0,6.0,33,0.00,,,0.00,meteohub,2013-06-15 19:12:00,
2013-06-15 15:17:00,73.9,42.3,29.97,NNW,338,3.0,4.0,32,0.00,,,0.00,meteohub,2013-06-15 19:17:00,
2013-06-15 15:22:00,74.1,43.2,29.94,WNW,292,2.0,4.0,33,0.00,,,0.00,meteohub,2013-06-15 19:22:00,
2013-06-15 15:27:00,74.3,43.3,29.94,WNW,292,3.0,4.0,33,0.00,,,0.00,meteohub,2013-06-15 19:27:00,
2013-06-15 15:32:00,74.3,42.6,29.94,West,270,1.0,3.0,32,0.00,,,0.00,meteohub,2013-06-15 19:32:00,
2013-06-15 15:42:00,74.5,42.8,29.94,NNW,338,1.0,4.0,32,0.00,,,0.00,meteohub,2013-06-15 19:42:00,
2013-06-15 15:47:00,74.5,41.9,29.94,NNW,338,2.0,5.0,31,0.00,,,0.00,meteohub,2013-06-15 19:47:00,
2013-06-15 15:52:00,74.5,41.9,29.94,NNE,22,1.0,5.0,31,0.00,,,0.00,meteohub,2013-06-15 19:52:00,
2013-06-15 15:57:00,74.5,42.8,29.94,SSW,202,0.0,4.0,32,0.00,,,0.00,meteohub,2013-06-15 19:57:00,
2013-06-15 16:02:00,74.5,42.8,29.94,NNW,338,2.0,5.0,32,0.00,,,0.00,meteohub,2013-06-15 20:02:00,
2013-06-15 16:07:00,74.8,42.3,29.94,NNW,338,3.0,5.0,31,0.00,,,0.00,meteohub,2013-06-15 20:07:00,
2013-06-15 16:12:00,75.0,43.2,29.94,NNW,338,2.0,4.0,32,0.00,,,0.00,meteohub,2013-06-15 20:12:00,
2013-06-15 16:17:00,75.0,42.4,29.94,NNW,338,3.0,4.0,31,0.00,,,0.00,meteohub,2013-06-15 20:17:00,
2013-06-15 16:22:00,75.0,42.4,29.94,NNW,338,3.0,4.0,31,0.00,,,0.00,meteohub,2013-06-15 20:22:00,
2013-06-15 16:27:00,75.0,42.4,29.94,WNW,292,0.0,4.0,31,0.00,,,0.00,meteohub,2013-06-15 20:27:00,
2013-06-15 16:32:00,75.0,42.4,29.94,NNW,338,3.0,9.0,31,0.00,,,0.00,meteohub,2013-06-15 20:32:00,
2013-06-15 16:37:00,75.0,42.4,29.94,NW,315,0.0,9.0,31,0.00,,,0.00,meteohub,2013-06-15 20:37:00,
2013-06-15 16:42:00,75.0,42.4,29.94,NW,315,3.0,4.0,31,0.00,,,0.00,meteohub,2013-06-15 20:42:00,
2013-06-15 16:47:00,75.0,43.2,29.94,NW,315,2.0,4.0,32,0.00,,,0.00,meteohub,2013-06-15 20:47:00,
2013-06-15 16:52:00,75.2,42.4,29.91,NW,315,1.0,4.0,31,0.00,,,0.00,meteohub,2013-06-15 20:52:00,
2013-06-15 16:57:00,75.0,43.2,29.91,NW,315,0.0,4.0,32,0.00,,,0.00,meteohub,2013-06-15 20:57:00,
2013-06-15 17:02:00,74.8,43.0,29.91,WSW,248,3.0,5.0,32,0.00,,,0.00,meteohub,2013-06-15 21:02:00,
2013-06-15 17:07:00,74.7,42.8,29.94,WNW,292,4.0,5.0,32,0.00,,,0.00,meteohub,2013-06-15 21:07:00,
2013-06-15 17:12:00,74.7,42.8,29.94,SSW,202,2.0,4.0,32,0.00,,,0.00,meteohub,2013-06-15 21:12:00,
2013-06-15 17:17:00,74.5,43.5,29.94,WNW,292,0.0,4.0,33,0.00,,,0.00,meteohub,2013-06-15 21:17:00,
2013-06-15 17:22:00,74.5,43.5,29.94,NW,315,1.0,4.0,33,0.00,,,0.00,meteohub,2013-06-15 21:22:00,
2013-06-15 17:27:00,74.5,42.8,29.94,NNW,338,4.0,4.0,32,0.00,,,0.00,meteohub,2013-06-15 21:27:00,
2013-06-15 17:32:00,74.5,42.8,29.94,WNW,292,3.0,4.0,32,0.00,,,0.00,meteohub,2013-06-15 21:32:00,
2013-06-15 17:37:00,74.3,43.3,29.94,WSW,248,4.0,4.0,33,0.00,,,0.00,meteohub,2013-06-15 21:37:00,
2013-06-15 17:42:00,74.1,43.2,29.94,WNW,292,1.0,5.0,33,0.00,,,0.00,meteohub,2013-06-15 21:42:00,
2013-06-15 17:47:00,73.9,43.0,29.94,West,270,0.0,5.0,33,0.00,,,0.00,meteohub,2013-06-15 21:47:00,
2013-06-15 17:52:00,73.9,43.0,29.94,NW,315,0.0,5.0,33,0.00,,,0.00,meteohub,2013-06-15 21:52:00,
2013-06-15 17:57:00,73.9,43.0,29.94,NW,315,2.0,5.0,33,0.00,,,0.00,meteohub,2013-06-15 21:57:00,
2013-06-15 18:02:00,74.1,43.2,29.94,WNW,292,3.0,5.0,33,0.00,,,0.00,meteohub,2013-06-15 22:02:00,
2013-06-15 18:07:00,74.1,43.2,29.94,NNW,338,2.0,4.0,33,0.00,,,0.00,meteohub,2013-06-15 22:07:00,
2013-06-15 18:12:00,74.1,43.2,29.94,NW,315,1.0,4.0,33,0.00,,,0.00,meteohub,2013-06-15 22:12:00,
2013-06-15 18:17:00,73.9,43.0,29.94,NNW,338,2.0,3.0,33,0.00,,,0.00,meteohub,2013-06-15 22:17:00,
2013-06-15 18:22:00,73.9,42.3,29.94,NNW,338,2.0,3.0,32,0.00,,,0.00,meteohub,2013-06-15 22:22:00,
2013-06-15 18:27:00,73.9,43.0,29.94,NNW,338,1.0,3.0,33,0.00,,,0.00,meteohub,2013-06-15 22:27:00,
2013-06-15 18:32:00,73.9,43.0,29.94,WNW,292,0.0,4.0,33,0.00,,,0.00,meteohub,2013-06-15 22:32:00,
2013-06-15 18:37:00,73.8,43.0,29.94,NW,315,1.0,4.0,33,0.00,,,0.00,meteohub,2013-06-15 22:37:00,
2013-06-15 18:42:00,73.6,42.8,29.94,SSW,202,0.0,4.0,33,0.00,,,0.00,meteohub,2013-06-15 22:42:00,
2013-06-15 18:47:00,73.6,42.8,29.94,West,270,0.0,2.0,33,0.00,,,0.00,meteohub,2013-06-15 22:47:00,
2013-06-15 18:52:00,73.4,43.3,29.94,WNW,292,0.0,2.0,34,0.00,,,0.00,meteohub,2013-06-15 22:52:00,
2013-06-15 18:57:00,73.2,43.2,29.94,WNW,292,0.0,2.0,34,0.00,,,0.00,meteohub,2013-06-15 22:57:00,
2013-06-15 19:02:00,73.0,43.0,29.94,WSW,248,0.0,2.0,34,0.00,,,0.00,meteohub,2013-06-15 23:02:00,
2013-06-15 19:07:00,72.9,42.8,29.91,WNW,292,0.0,3.0,34,0.00,,,0.00,meteohub,2013-06-15 23:07:00,
2013-06-15 19:12:00,72.7,42.8,29.91,WNW,292,0.0,4.0,34,0.00,,,0.00,meteohub,2013-06-15 23:12:00,
2013-06-15 19:17:00,72.3,42.4,29.91,West,270,0.0,4.0,34,0.00,,,0.00,meteohub,2013-06-15 23:17:00,
2013-06-15 19:22:00,72.1,43.0,29.94,WNW,292,0.0,4.0,35,0.00,,,0.00,meteohub,2013-06-15 23:22:00,
2013-06-15 19:27:00,71.8,42.6,29.94,WNW,292,0.0,0.0,35,0.00,,,0.00,meteohub,2013-06-15 23:27:00,
2013-06-15 19:32:00,71.4,43.2,29.94,WNW,292,0.0,0.0,36,0.00,,,0.00,meteohub,2013-06-15 23:32:00,
2013-06-15 19:37:00,71.4,43.2,29.94,West,270,0.0,0.0,36,0.00,,,0.00,meteohub,2013-06-15 23:37:00,
2013-06-15 19:42:00,71.1,42.8,29.94,West,270,0.0,0.0,36,0.00,,,0.00,meteohub,2013-06-15 23:42:00,
2013-06-15 19:47:00,70.9,42.6,29.94,West,270,0.0,0.0,36,0.00,,,0.00,meteohub,2013-06-15 23:47:00,
2013-06-15 19:52:00,70.7,42.4,29.94,WSW,248,0.0,0.0,36,0.00,,,0.00,meteohub,2013-06-15 23:52:00,
2013-06-15 19:57:00,70.5,43.0,29.94,South,180,0.0,0.0,37,0.00,,,0.00,meteohub,2013-06-15 23:57:00,
2013-06-15 20:02:00,70.2,42.6,29.94,South,180,0.0,0.0,37,0.00,,,0.00,meteohub,2013-06-16 00:02:00,
2013-06-15 20:07:00,69.8,43.2,29.94,South,180,0.0,0.0,38,0.00,,,0.00,meteohub,2013-06-16 00:07:00,
2013-06-15 20:12:00,69.3,43.9,29.94,South,180,0.0,0.0,40,0.00,,,0.00,meteohub,2013-06-16 00:12:00,
2013-06-15 20:17:00,69.1,43.7,29.94,South,180,0.0,0.0,40,0.00,,,0.00,meteohub,2013-06-16 00:17:00,
2013-06-15 20:22:00,68.7,44.1,29.97,South,180,0.0,0.0,41,0.00,,,0.00,meteohub,2013-06-16 00:22:00,
2013-06-15 20:27:00,68.0,44.1,29.97,South,180,0.0,0.0,42,0.00,,,0.00,meteohub,2013-06-16 00:27:00,
2013-06-15 20:32:00,67.8,44.6,29.97,South,180,0.0,0.0,43,0.00,,,0.00,meteohub,2013-06-16 00:32:00,
2013-06-15 20:37:00,67.3,44.6,29.97,South,180,0.0,0.0,44,0.00,,,0.00,meteohub,2013-06-16 00:37:00,
2013-06-15 20:42:00,66.9,45.5,29.97,South,180,0.0,0.0,46,0.00,,,0.00,meteohub,2013-06-16 00:42:00,
2013-06-15 20:47:00,66.2,46.6,29.97,South,180,0.0,0.0,49,0.00,,,0.00,meteohub,2013-06-16 00:47:00,
2013-06-15 20:52:00,65.7,45.5,29.97,South,180,0.0,0.0,48,0.00,,,0.00,meteohub,2013-06-16 00:52:00,
2013-06-15 20:57:00,65.1,46.0,29.97,South,180,0.0,0.0,50,0.00,,,0.00,meteohub,2013-06-16 00:57:00,
2013-06-15 21:02:00,65.3,45.1,29.97,South,180,0.0,0.0,48,0.00,,,0.00,meteohub,2013-06-16 01:02:00,
2013-06-15 21:07:00,65.1,45.0,29.97,South,180,0.0,0.0,48,0.00,,,0.00,meteohub,2013-06-16 01:07:00,
2013-06-15 21:12:00,65.1,46.0,29.97,SW,225,0.0,0.0,50,0.00,,,0.00,meteohub,2013-06-16 01:12:00,
2013-06-15 21:17:00,64.9,45.3,29.97,South,180,0.0,0.0,49,0.00,,,0.00,meteohub,2013-06-16 01:17:00,
2013-06-15 21:22:00,64.8,46.8,29.97,South,180,0.0,0.0,52,0.00,,,0.00,meteohub,2013-06-16 01:22:00,
2013-06-15 21:27:00,64.4,45.3,29.97,SSW,202,0.0,0.0,50,0.00,,,0.00,meteohub,2013-06-16 01:27:00,
2013-06-15 21:32:00,64.4,46.4,29.97,SSW,202,0.0,0.0,52,0.00,,,0.00,meteohub,2013-06-16 01:32:00,
2013-06-15 21:37:00,63.5,47.5,30.00,SSW,202,0.0,0.0,56,0.00,,,0.00,meteohub,2013-06-16 01:37:00,
2013-06-15 21:42:00,62.8,46.9,30.00,SSW,202,0.0,0.0,56,0.00,,,0.00,meteohub,2013-06-16 01:42:00,
2013-06-15 21:47:00,62.4,47.8,30.00,SSW,202,0.0,0.0,59,0.00,,,0.00,meteohub,2013-06-16 01:47:00,
2013-06-15 21:52:00,62.2,47.3,30.00,SSW,202,0.0,0.0,58,0.00,,,0.00,meteohub,2013-06-16 01:52:00,
2013-06-15 21:57:00,61.9,47.8,30.00,SSW,202,0.0,0.0,60,0.00,,,0.00,meteohub,2013-06-16 01:57:00,
2013-06-15 22:02:00,61.5,47.5,30.00,South,180,0.0,0.0,60,0.00,,,0.00,meteohub,2013-06-16 02:02:00,
2013-06-15 22:07:00,62.6,46.8,30.00,SSW,202,0.0,1.0,56,0.00,,,0.00,meteohub,2013-06-16 02:07:00,
2013-06-15 22:12:00,62.8,48.2,30.00,SSW,202,0.0,2.0,59,0.00,,,0.00,meteohub,2013-06-16 02:12:00,
2013-06-15 22:17:00,62.6,46.8,30.00,South,180,0.0,2.0,56,0.00,,,0.00,meteohub,2013-06-16 02:17:00,
2013-06-15 22:22:00,63.0,46.0,30.00,South,180,0.0,2.0,54,0.00,,,0.00,meteohub,2013-06-16 02:22:00,
2013-06-15 22:27:00,63.1,45.7,30.00,South,180,0.0,2.0,53,0.00,,,0.00,meteohub,2013-06-16 02:27:00,
2013-06-15 22:32:00,63.3,45.5,30.00,South,180,0.0,2.0,52,0.00,,,0.00,meteohub,2013-06-16 02:32:00,
2013-06-15 22:37:00,62.6,47.1,30.00,South,180,0.0,0.0,57,0.00,,,0.00,meteohub,2013-06-16 02:37:00,
2013-06-15 22:42:00,61.9,47.5,30.00,South,180,0.0,0.0,59,0.00,,,0.00,meteohub,2013-06-16 02:42:00,
2013-06-15 22:47:00,61.5,46.6,30.00,South,180,0.0,0.0,58,0.00,,,0.00,meteohub,2013-06-16 02:47:00,
2013-06-15 22:52:00,61.0,47.5,30.00,SSW,202,0.0,0.0,61,0.00,,,0.00,meteohub,2013-06-16 02:52:00,
2013-06-15 22:57:00,60.4,47.8,30.00,SSW,202,0.0,0.0,63,0.00,,,0.00,meteohub,2013-06-16 02:57:00,
2013-06-15 23:02:00,60.3,48.0,30.00,SSW,202,0.0,0.0,64,0.00,,,0.00,meteohub,2013-06-16 03:02:00,
2013-06-15 23:07:00,59.7,47.1,29.97,SSW,202,0.0,0.0,63,0.00,,,0.00,meteohub,2013-06-16 03:07:00,
2013-06-15 23:12:00,59.5,47.8,29.97,SSW,202,0.0,0.0,65,0.00,,,0.00,meteohub,2013-06-16 03:12:00,
2013-06-15 23:17:00,60.1,46.6,29.97,SSE,158,0.0,0.0,61,0.00,,,0.00,meteohub,2013-06-16 03:17:00,
2013-06-15 23:22:00,60.6,46.8,30.00,WSW,248,0.0,2.0,60,0.00,,,0.00,meteohub,2013-06-16 03:22:00,
2013-06-15 23:27:00,60.6,45.9,30.00,WSW,248,1.0,3.0,58,0.00,,,0.00,meteohub,2013-06-16 03:27:00,
2013-06-15 23:32:00,61.2,45.3,30.00,SSE,158,0.0,4.0,56,0.00,,,0.00,meteohub,2013-06-16 03:32:00,
2013-06-15 23:37:00,61.5,45.1,30.00,SSW,202,0.0,4.0,55,0.00,,,0.00,meteohub,2013-06-16 03:37:00,
2013-06-15 23:42:00,61.7,44.4,30.00,SSW,202,0.0,3.0,53,0.00,,,0.00,meteohub,2013-06-16 03:42:00,
2013-06-15 23:47:00,61.9,44.1,30.00,South,180,0.0,2.0,52,0.00,,,0.00,meteohub,2013-06-16 03:47:00,
2013-06-15 23:52:00,61.2,45.3,30.00,SE,135,0.0,2.0,56,0.00,,,0.00,meteohub,2013-06-16 03:52:00,
2013-06-15 23:57:00,61.3,44.1,30.00,SSW,202,0.0,2.0,53,0.00,,,0.00,meteohub,2013-06-16 03:57:00,